STARLINK AW

Last updated on June 19, 2020, 12:02 a.m. UTC

1 45774U 20038AW  20170.66667824  .00094252  11276-4  11747-3 0  9991
2 45774  52.9997 272.2344 0111222  69.1943  29.9168 15.96209419  2121

Satellite is not in orbit.